Regional Weather Roundup
Issued by NWS

Home | Current Version | Previous Version | Text Only | Print | Product List | Glossary Off
Versions: 1 2 3 4 5 6 7 8 9 10 11 12 13 14 15 16 17 18 19 20 21 22 23 24 25 26 27 28 29 30 31 32 33 34 35 36 37 38 39 40 41 42 43 44 45 46 47 48 49 50

336
ASUS43 KIND 291559
RWRIN

WEATHER ROUNDUP FOR INDIANA
NATIONAL WEATHER SERVICE INDIANAPOLIS IN
1200 PM EDT SAT APR 29 2017

NOTE: "FAIR" INDICATES FEW OR NO CLOUDS BELOW 12,000 FEET WITH NO
SIGNIFICANT WEATHER AND/OR OBSTRUCTIONS TO VISIBILITY.

* - STATION DOES NOT REPORT WEATHER SUCH AS PRECIPITATION OR FOG.

+ - STATION NOT QUALITY CONTROLLED BY THE NATIONAL WEATHER SERVICE.
    USE DATA WITH CAUTION...ESPECIALLY DEWPOINT AND RELATIVE
    HUMIDITY OBSERVATIONS.

INZ001>003-010>013-019-020-291700-
NORTHWEST INDIANA

CITY           SKY/WX    TMP DP  RH WIND       PRES   REMARKS
GARY /AIRPORT/ CLOUDY    46  37  71 N21G37    30.14R
MONTICELLO +   DRIZZLE   51  49  92 NE9       30.09R
RENSSELAER +   LGT RAIN  52  45  76 NE13      30.12R

$$

LMZ046-743>745-291700-
SOUTHERN LAKE MICHIGAN

STATION/POSITION TIME  TEMP    WIND        PRES    WAVE
                       AIR SEA DIR/SP/G            HT
                 (UTC) (F)     (DEG/KT/KT) (MB)    (FT)
BURNS HARBOR     1540   44      20/ 21/ 24 1021.3R
MICHIGAN CITY    1530   44      10/ 24/ 27   N/A
5NW MICH CITY    1550   44 46                N/A     6

$$

INZ004-005-014>016-021>024-291700-
NORTH CENTRAL INDIANA

CITY           SKY/WX    TMP DP  RH WIND       PRES   REMARKS
GOSHEN         CLOUDY    52  43  71 NE10      30.14R
SOUTH BEND     CLOUDY    52  44  74 E8        30.15R

$$

INZ006>009-017-018-025>027-291700-
NORTHEAST INDIANA

CITY           SKY/WX    TMP DP  RH WIND       PRES   REMARKS
ANGOLA *+      CLOUDY    48  36  61 E8        30.15R
FORT WAYNE     LGT RAIN  54  51  90 E14       30.12R FOG
KENDALLVILLE + CLOUDY    48  45  87 E8        30.15R

$$

INZ028-029-035-036-043>045-051>053-291700-
WEST CENTRAL INDIANA

CITY           SKY/WX    TMP DP  RH WIND       PRES   REMARKS
CRAWFORDSVL +  CLOUDY    54  54 100 SE13G18   30.04R
GREENCASTLE +  CLOUDY    57  57 100 E8        30.05R
LAFAYETTE      LGT RAIN  53  53 100 NE15      30.04F FOG
TERRE HAUTE    LGT RAIN  61  59  93 E7        30.03R

$$

INZ030>032-037>040-046>048-054>057-064-065-291700-
CENTRAL INDIANA

CITY           SKY/WX    TMP DP  RH WIND       PRES   REMARKS
COLUMBUS       PTSUNNY   66  64  94 S13       30.07F
INDIANAPOLIS   CLOUDY    58  57  97 E8        30.06R
-EAGLE CREEK   LGT RAIN  58  56  93 E8        30.06F
KOKOMO +       LGT RAIN  55  54  96 E13       30.09S
SHELBYVILLE    CLOUDY    67  63  87 S9        30.07R

$$

INZ033-034-041-042-049-050-058-059-291700-
EAST CENTRAL INDIANA

CITY           SKY/WX    TMP DP  RH WIND       PRES   REMARKS
MUNCIE         LGT RAIN  58  55  90 NE10      30.07F
RICHMOND +     LGT RAIN  61  61 100 S13       30.11R

$$

INZ060-061-067>069-081>083-085>088-291700-
SOUTHWEST INDIANA

CITY           SKY/WX    TMP DP  RH WIND       PRES   REMARKS
EVANSVILLE     CLOUDY    70  63  78 E8        30.01S

$$

INZ062-063-066-070>080-084-089>092-291700-
SOUTH CENTRAL AND SOUTHEAST INDIANA

CITY           SKY/WX    TMP DP  RH WIND       PRES   REMARKS
BLOOMINGTON    PTSUNNY   67  62  84 SE12      30.06R
MADISON *+     CLOUDY    66  63  88 SE5       30.12R
SEYMOUR +      CLOUDY   N/A N/A N/A SE8       30.07F

$$





USA.gov is the U.S. government's official web portal to all federal, state and local government web resources and services.